Wind_Speed
24 24 24 25 24 24 23 23 23 24 24 22 21 22 21 20 19 19 19 18 16 15 15 13 13 13 13 13 13 11 10 10 10 9 8 5 4 5 5 6 6 6 6 6 6 7 8 9 8 6 4 4 5 6 7 8 10 11 10 9 8 8 7 6 5 5 4 4 3 2 2 2 3 4 5 6 6 6 7 8 10 12 14 14 14
25 25 26 27 27 26 26 25 25 26 25 24 23 23 23 22 21 21 21 20 17 16 15 14 13 13 13 13 12 11 9 10 10 9 8 6 4 4 5 5 6 6 5 5 5 6 7 8 7 5 4 5 5 6 7 9 11 11 10 9 9 9 8 7 6 5 4 4 4 3 3 3 3 3 4 5 6 6 6 6 8 10 12 13 14
27 28 28 29 29 29 29 28 27 27 26 25 25 25 24 23 22 22 22 21 18 16 16 15 14 14 13 13 12 10 9 9 10 9 9 7 5 5 5 5 6 6 5 4 4 5 5 6 6 5 4 5 6 6 8 10 11 11 10 9 9 9 8 8 7 6 5 4 4 4 4 5 5 4 4 4 5 5 6 6 8 9 11 13 14
27 29 30 31 31 31 31 30 28 27 27 26 26 26 26 24 23 23 23 22 19 17 16 15 14 14 14 13 12 10 9 9 9 9 9 7 6 6 5 5 6 5 4 4 3 4 4 4 5 5 4 4 5 6 8 11 11 11 10 10 10 9 9 8 7 6 6 5 5 5 5 5 6 6 5 4 4 5 6 6 8 9 11 12 13
27 29 30 31 31 31 31 29 29 29 28 27 26 27 26 25 24 24 24 22 19 18 17 16 15 15 14 13 13 10 8 8 9 9 8 8 7 7 7 5 6 5 4 3 3 4 3 3 4 4 3 4 4 5 8 10 11 11 10 10 10 9 9 8 8 7 6 6 5 5 5 5 6 6 6 6 5 5 6 6 7 8 10 11 11
28 29 29 30 30 30 29 28 29 29 28 27 26 27 27 25 25 25 25 23 20 18 18 17 15 15 14 14 14 12 8 8 9 9 9 8 8 8 8 6 5 6 3 2 3 3 3 2 3 4 4 5 5 7 8 10 10 11 10 10 10 9 9 8 8 7 6 6 5 4 4 4 5 5 6 7 7 6 6 6 6 7 8 9 10
29 29 29 30 31 30 28 28 28 28 27 27 27 27 27 26 25 25 25 24 21 19 18 17 16 15 14 14 15 13 10 9 9 10 9 8 9 10 9 7 6 6 5 2 2 3 3 3 3 4 5 6 7 8 9 10 11 10 10 10 10 9 9 8 8 7 6 6 5 4 3 3 4 4 5 6 7 7 6 6 5 5 5 6 7
28 28 29 29 30 29 28 29 28 26 26 27 26 27 27 26 25 25 26 26 24 20 18 17 16 15 15 15 16 16 12 10 10 10 9 9 10 11 10 9 7 6 6 3 1 2 2 3 4 4 5 7 7 9 11 11 12 11 10 10 10 9 9 8 8 8 7 6 5 4 3 2 3 3 4 5 6 6 6 6 5 4 4 3 4
25 26 26 27 27 27 27 29 28 27 26 26 26 27 27 26 25 25 26 27 26 24 21 18 16 16 16 16 17 18 15 12 10 10 10 10 11 11 11 10 8 7 7 5 3 1 2 3 4 5 6 7 8 9 11 11 12 11 10 11 10 9 9 8 8 7 7 6 5 5 4 3 3 3 3 4 5 5 5 5 5 4 4 3 3
23 23 24 24 24 24 25 27 28 27 26 26 26 27 27 27 26 25 26 27 28 28 25 21 19 18 18 18 18 19 18 15 12 11 12 12 12 12 12 11 10 9 8 7 5 3 2 2 3 5 6 7 8 10 11 11 11 11 11 11 10 9 9 8 8 7 6 6 5 5 4 3 3 3 3 3 4 4 4 4 4 3 3 2 2
23 22 22 22 22 22 23 25 26 26 26 26 27 27 27 28 27 26 27 27 28 28 27 25 22 21 20 20 20 20 20 18 14 12 13 13 13 13 14 13 11 10 9 8 7 6 5 3 3 4 6 7 9 11 12 12 12 12 11 11 10 9 9 9 8 7 7 6 5 5 4 4 3 3 3 3 3 3 3 3 3 3 3 2 2
22 21 21 21 20 20 21 23 24 24 25 26 27 27 28 28 28 28 27 27 26 26 27 27 25 23 22 21 21 21 21 21 17 15 14 15 15 14 14 15 13 12 11 10 9 8 7 6 4 4 5 7 9 11 13 13 13 12 12 12 11 10 10 10 9 8 7 7 6 5 5 4 4 4 4 4 3 3 3 3 3 3 3 3 3
21 20 20 20 19 19 20 21 22 23 24 26 27 27 28 28 28 28 28 28 27 26 27 27 26 25 24 23 23 22 22 23 20 18 17 16 16 15 15 16 15 14 13 12 11 10 9 8 7 6 5 6 9 11 13 14 14 13 12 12 12 11 11 10 9 9 8 7 6 6 5 5 4 4 4 4 4 3 3 3 3 3 3 3 3
20 20 20 19 18 18 19 20 21 22 24 25 26 27 27 28 28 28 29 29 28 28 28 27 27 27 26 24 24 23 23 24 23 21 20 18 17 17 16 16 16 16 14 13 13 12 11 11 10 8 7 7 8 11 13 14 14 14 13 13 12 11 11 10 10 9 9 8 7 6 6 6 5 5 4 4 4 4 4 3 3 3 3 3 4
20 20 20 19 19 19 19 20 21 22 23 24 26 26 27 29 29 29 29 29 29 29 28 27 27 28 27 25 25 25 24 24 25 24 22 20 19 18 18 17 17 17 16 15 14 14 13 12 12 11 9 9 9 10 12 14 15 14 14 13 12 11 11 10 10 10 9 9 8 7 7 6 6 5 5 4 4 4 4 4 3 3 3 4 4
19 20 20 20 20 19 20 20 21 22 23 24 25 27 28 29 30 30 29 30 30 30 29 29 28 28 28 27 26 25 24 25 26 25 24 22 20 20 19 18 18 18 17 16 16 15 15 14 14 13 12 11 10 11 12 14 15 15 14 14 13 12 12 11 11 10 10 10 9 8 7 7 6 6 5 4 4 4 3 3 3 3 3 3 4
19 20 21 21 20 20 20 20 21 21 23 24 25 27 28 28 29 30 29 29 29 30 30 30 29 29 29 28 27 26 25 26 25 25 26 25 22 21 20 19 19 18 18 18 17 16 16 15 15 14 14 13 12 11 12 13 15 15 15 15 14 14 13 12 11 10 10 10 9 8 8 7 6 5 4 4 3 3 3 3 2 2 2 2 3
20 20 21 21 21 20 20 21 21 21 23 24 25 26 27 28 29 29 29 28 27 27 29 30 30 30 29 28 27 27 27 26 26 26 28 27 25 23 22 21 20 20 19 18 18 17 17 16 16 15 14 13 13 12 13 14 15 16 16 16 15 15 14 13 12 11 10 9 8 8 7 6 4 4 3 3 2 2 2 2 2 2 2 2 2
21 21 21 21 21 21 21 22 22 22 23 24 25 26 27 28 30 29 29 29 28 27 28 29 30 30 30 29 29 30 29 26 26 28 28 28 27 25 23 22 21 20 20 20 19 18 17 17 16 15 14 13 13 13 13 13 15 16 17 17 16 16 16 15 13 12 11 10 9 8 7 6 5 4 3 3 3 3 3 3 3 3 2 2 3
22 22 22 23 23 22 22 23 23 23 23 24 25 26 27 28 29 29 29 29 29 29 29 28 28 30 31 30 30 32 31 28 27 28 27 28 28 27 25 23 21 22 22 22 21 20 18 17 17 16 14 13 13 13 13 13 14 16 17 18 18 17 17 16 15 14 13 11 10 9 8 8 7 6 5 5 5 5 4 4 4 4 3 4 4
22 23 23 24 24 24 23 23 24 24 24 25 25 26 27 28 29 29 29 29 29 29 29 28 28 29 30 30 31 32 32 30 29 28 27 28 29 28 26 23 22 22 22 22 22 21 20 19 18 17 16 14 13 13 13 13 14 15 17 18 19 19 18 18 17 16 15 14 12 11 10 10 9 8 7 7 6 6 5 5 5 5 5 6 6
23 23 24 25 26 26 25 25 25 26 26 26 26 26 26 27 28 29 28 30 30 29 29 29 29 28 29 30 31 33 33 32 31 29 28 29 29 28 27 24 23 23 22 21 21 21 21 20 19 19 17 16 15 14 13 13 13 14 15 17 19 19 19 19 18 17 16 15 14 13 12 11 11 10 9 8 8 7 6 6 6 6 7 7 8
24 24 25 25 27 28 27 27 26 27 27 27 26 26 27 27 28 28 28 29 29 29 29 29 29 30 30 31 31 32 34 34 32 31 30 29 29 29 27 24 23 23 22 21 20 21 21 21 21 20 18 17 16 15 14 13 13 13 14 15 18 20 20 20 19 19 18 17 16 15 14 13 12 12 11 10 9 9 8 8 8 7 8 8 8
24 25 26 26 28 29 29 29 28 28 28 28 27 27 27 28 28 28 29 29 28 28 29 29 30 32 33 32 31 32 33 34 34 33 31 30 29 30 29 27 25 24 23 22 22 22 22 21 21 20 19 18 17 17 16 14 14 13 13 14 16 19 20 20 20 20 19 18 17 16 15 14 14 13 12 11 11 11 10 9 9 9 8 9 8
25 25 26 27 28 29 31 31 30 30 29 29 29 28 28 28 28 29 29 29 28 29 29 30 31 33 33 32 31 32 32 33 35 34 33 32 30 30 31 30 29 26 25 24 23 23 22 22 22 21 20 20 19 18 17 16 15 15 14 14 15 16 18 20 21 21 20 19 19 17 16 16 15 14 14 13 13 13 12 11 11 10 10 9 9
25 26 26 26 27 29 30 31 32 32 31 31 31 30 29 29 29 29 29 29 29 29 29 31 32 32 33 32 32 32 31 32 35 35 34 34 32 30 31 32 30 27 27 27 25 25 24 23 22 22 21 21 20 19 18 18 18 17 16 15 14 15 16 18 19 20 21 21 20 19 18 17 17 16 16 15 15 14 14 13 12 12 11 11 10
26 27 27 27 27 28 29 31 32 32 32 33 32 32 32 30 29 29 30 30 30 29 30 31 32 32 32 33 34 33 32 33 35 36 35 35 33 32 32 34 32 28 27 28 27 26 26 24 23 22 22 22 21 20 19 19 19 18 18 17 16 15 15 16 17 19 20 20 20 20 19 19 18 18 18 17 16 15 15 14 14 13 13 12 11
28 28 28 28 28 28 28 29 31 32 33 33 34 34 33 32 31 30 30 31 30 30 30 31 33 33 33 35 35 35 34 35 35 35 36 36 35 33 34 35 34 30 28 29 28 27 26 25 24 24 24 23 23 22 21 20 20 19 19 18 18 17 16 16 16 17 18 19 19 20 20 20 20 20 20 19 18 17 16 16 15 15 14 13 13
31 30 30 30 29 29 28 29 29 31 32 33 34 34 34 34 33 32 31 32 32 31 31 32 33 34 35 36 36 36 37 37 35 34 36 37 37 35 34 35 35 33 30 29 28 28 27 26 25 25 25 25 25 24 23 22 21 20 19 19 19 19 18 18 17 16 16 17 17 18 20 20 21 21 21 21 20 19 18 17 17 16 15 15 14
33 32 31 31 31 30 30 29 29 30 31 32 33 34 35 35 34 33 32 32 33 32 32 33 34 35 36 37 36 37 38 38 37 35 36 38 38 36 36 35 35 34 32 30 30 30 29 27 26 26 26 26 26 26 24 23 22 21 20 19 19 20 20 20 19 18 17 16 16 17 18 19 20 21 21 21 21 20 20 19 19 18 17 16 16
35 35 34 32 32 32 31 31 31 31 32 32 33 33 35 36 36 34 33 33 34 33 33 33 34 35 35 35 36 37 39 39 38 37 37 39 39 39 38 37 36 35 32 31 31 31 30 28 27 27 27 27 27 26 25 24 24 23 22 20 20 20 21 21 21 20 19 18 17 17 18 18 19 20 21 21 21 21 21 20 20 19 19 18 17
35 36 36 35 34 33 32 31 31 32 32 33 33 33 34 35 36 35 35 35 34 32 32 33 34 35 34 34 36 37 38 39 39 39 40 40 40 40 40 39 39 37 35 33 32 31 32 30 28 29 29 29 28 27 26 26 25 25 24 22 21 21 22 22 22 22 21 20 20 19 19 19 20 20 21 21 21 22 22 21 21 21 20 20 19
33 35 36 37 36 35 33 32 31 32 32 32 33 34 34 34 36 36 36 36 34 32 32 33 34 35 34 33 35 38 38 38 39 40 41 42 41 42 42 41 40 40 38 36 34 32 32 32 31 30 29 28 28 27 27 27 26 26 25 23 22 22 23 23 23 23 22 22 22 22 22 22 22 22 22 22 22 22 22 22 22 22 22 22 21
30 33 35 37 38 37 35 34 32 31 31 31 32 34 35 35 35 36 37 36 34 33 32 32 33 34 34 32 33 37 39 39 40 41 41 42 43 43 44 42 41 42 41 39 37 34 32 33 33 31 28 27 27 27 27 27 27 26 26 25 24 24 24 24 24 24 23 23 23 23 23 23 24 24 24 24 24 24 24 24 24 24 24 23 23
26 29 32 35 37 38 37 35 33 31 31 30 31 32 34 35 35 36 36 36 35 35 34 34 34 34 34 33 32 34 37 38 40 41 42 44 44 44 45 44 43 43 43 41 39 36 33 33 34 33 30 27 26 27 27 27 27 26 26 25 25 25 25 26 25 25 24 24 24 24 24 24 24 24 24 25 25 25 26 25 25 25 24 24 23
25 26 28 31 34 36 37 36 34 32 30 30 30 30 32 34 35 35 35 35 36 35 34 35 35 33 33 33 30 31 35 38 38 39 42 45 46 45 44 45 45 44 44 43 41 39 37 35 34 35 34 31 28 28 29 28 27 26 26 26 27 27 26 26 26 26 25 25 25 25 25 25 25 24 24 24 25 26 26 26 25 25 24 24 23
24 24 25 27 31 34 35 36 35 33 31 29 29 28 29 31 33 33 34 34 34 34 33 35 34 31 31 31 29 29 33 36 37 38 40 42 45 45 44 44 45 44 44 45 43 42 40 38 35 35 36 36 33 30 30 29 28 27 27 28 27 26 26 27 27 27 26 26 26 26 26 26 26 26 26 26 26 27 27 27 26 26 25 25 24
24 23 23 24 28 31 33 35 35 34 31 29 28 27 27 28 29 30 31 32 33 33 34 35 33 30 30 29 27 28 31 34 35 37 38 39 42 44 44 44 43 43 44 45 44 44 42 40 38 36 36 38 37 34 32 31 30 29 29 29 28 27 28 27 27 28 28 28 27 27 27 28 28 28 28 28 29 29 29 29 28 28 27 27 27
23 22 21 22 25 29 31 33 35 34 32 30 27 26 25 26 27 27 28 29 31 32 33 34 33 31 30 29 28 29 31 34 36 37 37 37 39 42 44 44 44 44 45 44 44 45 43 42 41 38 36 37 39 37 34 32 32 32 32 31 29 29 29 29 29 29 29 29 29 29 28 29 29 30 30 30 31 31 31 31 30 30 29 29 29
22 21 20 21 23 26 29 32 33 34 33 31 28 25 24 24 25 25 26 27 28 30 31 31 31 30 30 30 29 29 30 34 37 37 36 36 37 40 42 44 45 45 44 44 44 45 44 43 43 41 37 36 37 37 36 34 33 34 34 33 31 30 30 31 32 32 31 30 30 30 30 30 31 31 32 33 33 33 33 33 32 32 31 32 32
20 19 18 19 20 23 26 29 32 33 34 32 29 26 24 23 23 24 25 25 26 27 28 28 28 28 28 29 29 28 29 31 33 34 36 37 37 37 39 42 45 45 44 43 43 44 44 44 43 42 40 37 36 35 34 35 35 35 35 36 35 33 34 35 35 34 33 33 32 32 32 33 32 32 34 34 34 35 34 34 34 34 34 35 35
19 18 17 17 18 20 23 27 30 32 33 33 31 28 25 23 22 23 24 25 25 25 26 26 26 27 27 28 29 29 30 30 29 29 32 35 37 37 37 38 40 43 45 43 42 43 44 43 42 42 42 41 39 38 36 35 35 35 36 37 37 36 37 38 37 37 36 36 36 36 36 36 35 35 36 35 35 36 36 35 35 36 37 38 38
18 18 17 17 17 19 21 24 27 30 32 32 31 29 27 24 22 22 23 24 24 25 25 25 25 26 26 26 28 29 30 29 28 27 27 29 32 35 36 35 35 37 40 43 43 43 43 43 43 43 44 44 43 42 41 39 38 38 37 37 38 37 38 40 41 41 39 38 38 39 38 37 36 37 37 36 37 38 38 37 38 39 39 40 40
17 17 17 17 17 19 20 22 25 28 30 31 31 30 29 26 23 21 22 23 24 24 24 24 24 24 24 24 25 26 27 28 28 27 26 26 27 29 31 32 33 32 33 36 41 44 43 43 45 45 45 45 45 45 44 43 42 41 40 40 39 39 39 40 43 44 42 40 40 40 40 39 39 40 40 38 39 40 40 39 40 40 40 41 42
16 17 17 17 17 18 20 21 23 26 28 30 31 30 30 28 25 22 21 22 23 24 24 23 23 23 23 23 23 23 24 25 26 27 26 24 24 25 26 28 30 31 31 32 37 42 44 42 42 44 46 46 46 46 45 44 44 44 44 42 41 40 39 40 42 42 42 42 41 41 42 42 42 42 42 40 40 40 40 40 41 41 42 42 43
15 16 16 16 17 18 20 21 22 24 26 28 30 30 30 29 28 25 22 22 23 23 24 23 23 22 22 22 22 22 22 23 24 25 25 24 23 24 24 25 27 30 33 33 32 36 42 44 41 41 42 44 45 46 45 45 45 46 47 46 44 42 41 41 41 40 40 41 42 43 45 45 44 43 42 41 40 40 40 41 42 43 44 44 44
13 16 16 16 16 17 19 20 21 23 25 27 28 29 29 29 29 27 25 23 23 23 23 23 23 22 22 22 22 21 21 21 22 23 24 24 23 23 24 24 26 29 33 35 32 30 34 41 43 42 42 42 44 45 46 47 46 47 48 49 48 46 45 45 44 42 40 40 42 44 46 47 46 46 45 44 43 43 42 43 43 44 44 45 45
12 13 16 16 16 16 17 19 20 21 23 25 26 28 29 29 29 28 28 26 25 24 23 23 23 22 22 22 21 21 21 21 21 22 23 23 23 23 21 21 23 26 29 32 31 29 28 31 37 41 44 45 46 47 47 47 46 47 48 49 49 48 47 46 46 44 41 42 43 45 47 48 48 48 48 48 47 47 46 45 46 46 45 44 44
11 10 13 15 16 16 16 17 18 19 21 22 24 26 27 28 28 29 29 28 27 26 25 25 24 23 22 22 21 21 21 21 21 22 22 23 23 23 21 21 22 24 27 29 29 29 29 29 30 34 38 42 45 47 47 45 44 44 45 46 47 46 44 42 42 43 44 44 45 46 48 48 49 49 49 48 47 47 48 47 48 48 48 47 46
10 8 9 13 15 16 16 16 16 17 18 20 22 24 25 27 28 28 29 29 29 28 28 27 26 25 24 23 23 22 22 22 22 22 22 23 24 24 24 25 25 24 26 28 26 26 28 30 31 31 32 35 39 42 44 44 43 42 42 42 44 44 44 43 43 44 46 47 47 47 47 47 47 47 46 45 45 46 47 48 49 50 51 52 52
9 7 6 9 12 14 15 15 16 16 17 18 19 21 23 24 26 27 28 28 29 29 29 29 28 28 27 26 25 25 24 24 23 23 24 23 24 25 25 26 27 27 27 29 28 27 29 31 33 33 34 34 36 37 40 42 44 45 45 45 45 45 45 45 45 45 47 48 49 49 48 47 47 46 45 45 46 47 49 50 50 52 54 56 56
Wind_Direction
226 230 232 235 236 235 234 237 241 245 248 247 247 247 247 248 249 251 253 254 254 253 252 250 250 250 252 257 259 259 269 281 281 275 272 264 247 240 232 240 250 255 275 296 310 308 301 295 288 278 259 238 228 221 217 212 204 195 188 186 183 177 174 170 165 159 150 144 135 119 117 138 163 180 190 194 199 207 207 203 205 206 205 201 197
232 235 238 241 243 242 240 241 243 245 247 249 250 250 249 249 250 252 254 254 251 249 249 247 244 245 249 254 257 257 267 280 280 272 269 260 233 227 223 238 254 260 277 298 310 308 302 297 288 272 252 237 225 212 209 205 198 189 185 184 179 174 170 166 164 160 150 140 128 111 96 92 107 139 164 176 182 191 193 187 185 187 189 189 187
240 240 241 243 245 247 247 247 247 248 249 251 251 251 250 249 249 251 253 254 250 245 245 246 244 244 246 249 250 252 265 277 275 268 268 261 230 218 217 234 254 266 285 304 313 308 304 301 286 265 245 236 226 205 197 197 192 184 181 180 178 175 171 167 167 165 157 146 130 111 93 82 80 92 120 147 161 171 175 172 169 170 174 176 179
246 245 245 245 247 248 249 250 250 250 250 249 249 249 248 247 247 248 250 251 249 243 240 242 245 246 246 245 241 245 261 271 267 264 266 261 234 214 210 228 254 270 295 315 320 310 304 298 280 263 248 235 223 197 188 188 185 181 177 177 178 178 175 172 172 171 164 153 135 116 101 88 80 78 87 107 133 152 161 164 163 164 167 170 175
250 250 249 249 249 249 250 250 250 249 248 248 249 248 247 245 245 245 247 248 246 242 236 236 239 244 248 244 236 237 253 260 258 259 263 260 238 215 203 217 254 269 297 328 326 311 304 286 265 258 257 239 210 185 184 185 180 177 177 179 181 183 181 180 180 177 172 161 144 128 116 101 90 82 81 88 104 127 146 154 157 161 164 169 175
252 252 253 253 253 252 252 251 250 249 248 247 247 248 247 245 244 244 245 245 243 240 236 232 233 239 245 243 235 232 242 249 248 252 257 256 240 220 201 203 243 263 280 331 334 315 305 271 235 229 238 229 197 176 180 186 181 176 180 184 186 189 187 188 189 187 184 173 158 146 133 119 107 95 86 84 88 99 116 135 148 157 165 172 180
252 253 254 255 254 254 254 253 252 250 249 247 245 247 248 245 242 243 243 242 239 238 237 233 231 235 239 239 236 232 235 241 241 244 249 250 238 224 208 198 221 252 262 300 347 327 302 264 226 217 226 222 196 177 177 183 183 179 185 191 191 196 197 197 198 198 200 193 181 173 163 142 128 115 103 94 89 91 96 108 125 145 163 177 188
252 252 254 254 255 255 255 254 253 251 249 247 244 244 246 244 241 241 241 240 237 236 238 237 232 233 236 235 235 234 232 235 238 240 243 243 236 228 219 205 206 233 252 263 316 341 305 264 228 212 222 222 202 185 182 183 185 184 191 198 196 200 207 207 206 205 208 210 205 202 199 181 159 143 127 115 106 102 101 104 111 123 143 167 191
255 254 254 254 254 254 253 253 253 251 249 247 244 242 242 242 240 239 240 240 238 236 239 242 236 232 234 232 231 233 233 231 234 239 240 238 234 230 227 218 207 217 238 251 264 302 305 270 237 215 211 217 210 195 189 190 191 189 196 205 200 201 211 214 212 210 211 212 212 212 211 203 191 176 158 142 129 121 117 116 119 125 136 154 182
259 256 255 254 253 252 251 251 251 250 248 246 244 241 241 241 238 236 238 239 239 238 240 244 240 232 231 231 228 230 233 230 228 233 237 236 234 231 230 227 217 215 226 239 250 260 269 272 252 230 214 211 212 206 198 197 198 197 202 210 207 202 207 212 212 209 210 211 212 212 209 207 202 191 181 169 157 144 135 130 129 130 136 152 183
262 259 257 255 253 251 249 249 249 248 247 245 244 241 240 240 238 236 238 239 240 240 240 242 241 233 230 230 227 227 231 231 227 227 232 235 234 231 231 232 225 220 224 231 239 249 256 261 254 243 230 217 213 214 209 204 205 204 205 211 211 206 205 208 210 211 214 219 220 216 207 203 203 199 193 186 179 169 159 152 151 153 158 171 195
262 260 258 257 254 251 249 247 247 246 246 245 243 242 241 240 239 238 239 240 239 240 240 239 239 234 229 230 230 227 229 231 229 226 228 232 235 233 231 233 230 224 225 231 235 241 249 255 252 240 236 228 219 218 216 213 212 211 211 212 210 208 207 208 212 217 223 226 228 227 217 208 206 203 199 197 195 188 185 182 182 185 193 202 215
263 260 257 256 254 250 247 246 245 244 243 243 242 242 242 241 240 239 239 240 239 238 238 236 235 234 229 229 232 230 228 230 230 228 228 229 233 234 232 233 233 227 225 230 235 238 243 250 253 245 234 234 229 223 219 219 219 218 219 218 213 211 212 213 217 223 228 231 234 236 232 225 217 212 207 206 206 204 204 205 206 212 223 231 242
263 262 259 256 253 250 246 243 242 241 239 240 241 240 241 241 240 239 239 240 240 238 237 235 233 232 229 227 230 232 229 229 230 230 229 228 229 231 233 233 234 231 228 229 234 239 242 246 252 251 241 234 235 232 226 223 223 223 223 224 221 219 220 222 223 226 232 236 238 238 238 236 231 227 222 216 216 218 219 222 224 230 241 250 259
260 262 262 259 255 252 249 244 241 239 237 237 238 239 240 241 240 238 239 240 241 239 238 236 233 231 230 227 228 231 229 229 230 230 229 229 228 228 231 232 234 233 231 230 233 239 243 246 250 253 248 238 232 234 233 229 227 226 226 227 227 228 231 231 230 233 237 240 239 237 238 239 240 241 239 234 230 231 234 237 237 240 251 259 265
254 258 261 260 257 254 252 249 244 240 237 235 235 236 237 240 239 237 238 240 241 241 239 237 236 233 230 228 229 231 232 231 231 231 230 229 228 228 229 232 233 233 231 231 232 237 242 246 248 250 250 244 235 231 233 233 232 229 228 229 231 233 235 235 236 240 243 243 241 239 240 243 247 251 252 250 245 244 250 255 257 257 262 267 269
252 253 257 259 259 256 253 251 247 243 240 237 235 235 236 238 239 238 237 238 239 241 240 238 237 236 232 230 230 231 233 233 232 233 231 228 228 229 230 232 233 233 231 231 231 234 239 243 246 246 247 246 242 236 233 233 234 232 230 230 233 235 237 237 240 245 245 244 242 241 242 245 250 256 260 262 261 261 262 265 268 269 273 275 274
253 251 254 257 258 257 255 252 249 246 243 240 237 237 237 237 238 238 237 237 237 238 239 239 238 238 236 233 231 230 232 234 235 234 230 228 229 230 231 232 234 234 233 232 232 233 236 240 242 243 244 245 245 241 237 235 234 234 233 233 234 236 237 239 242 246 245 243 242 239 236 234 234 242 255 268 272 271 266 257 252 252 259 271 277
255 252 252 254 255 254 253 252 249 246 244 242 239 238 238 237 238 240 239 238 236 234 236 237 237 238 238 236 233 230 230 234 236 234 232 231 231 232 233 234 234 234 235 235 234 232 233 236 238 239 241 242 244 244 241 239 236 235 236 236 236 236 237 240 243 246 244 241 238 235 232 229 224 221 228 242 250 254 254 250 247 251 260 272 286
255 253 250 251 253 253 252 251 249 247 245 244 242 239 239 239 239 240 240 239 236 234 235 235 236 238 238 237 235 232 232 235 235 234 235 234 231 232 233 233 233 233 235 234 233 232 230 231 234 235 236 238 242 244 243 241 238 235 236 237 238 237 238 240 243 246 245 241 238 236 236 237 235 228 225 228 234 242 251 257 262 269 280 290 297
254 254 251 249 251 251 251 250 249 247 246 245 243 241 240 239 239 239 239 240 238 237 236 234 232 235 238 238 237 236 235 236 234 233 236 236 233 232 231 232 233 234 235 233 231 231 228 227 229 231 232 233 237 241 244 244 241 236 235 236 238 239 240 242 244 247 248 246 243 242 242 243 244 241 237 234 234 239 248 260 269 277 287 295 299
254 255 253 249 249 249 249 249 248 247 246 245 244 243 241 240 240 239 239 239 239 238 237 234 231 231 235 237 238 238 238 237 235 233 236 237 235 233 232 233 233 232 234 234 231 229 227 226 227 227 229 231 234 238 242 246 244 239 237 236 237 239 241 243 245 247 249 250 249 248 248 249 250 251 251 249 247 246 249 256 264 274 287 298 301
254 255 254 251 249 248 248 248 248 248 246 246 245 244 242 240 240 239 239 239 238 236 236 235 232 229 230 233 234 236 238 238 236 234 236 238 236 234 234 235 234 232 233 235 232 229 227 226 227 226 227 229 231 235 239 243 245 242 239 237 236 237 239 242 244 247 249 251 251 251 252 253 255 257 258 259 257 255 254 256 262 271 285 296 300
254 254 254 252 249 247 247 246 247 248 247 246 246 245 243 241 240 238 238 238 236 234 234 234 233 232 229 228 229 233 236 237 236 235 236 237 236 235 236 237 235 233 234 236 234 231 228 227 226 226 226 227 229 232 235 240 243 243 241 239 237 236 237 239 241 244 246 249 250 251 253 254 256 258 259 259 259 257 256 257 261 267 279 289 293
254 254 253 252 250 247 246 245 244 245 246 246 245 244 243 241 239 238 237 237 235 232 231 231 232 233 230 228 229 231 232 234 235 235 235 236 236 236 236 234 232 231 233 235 235 232 229 227 226 226 226 227 228 230 233 236 240 242 242 241 239 238 238 238 239 240 241 243 246 249 251 254 257 258 258 257 256 256 256 257 260 264 272 279 281
254 253 252 251 250 247 245 244 243 243 244 245 244 243 243 241 238 237 237 236 235 232 230 229 231 233 231 230 231 230 230 232 233 233 234 235 235 235 234 231 230 231 232 232 232 230 229 228 227 228 229 230 229 229 231 235 238 241 243 244 244 243 242 241 241 241 240 241 242 244 247 251 255 256 257 256 255 255 257 259 262 264 268 273 275
254 252 251 251 250 249 246 244 243 242 242 243 243 242 242 241 239 236 235 236 235 232 231 230 231 232 231 231 231 230 230 232 232 232 234 236 235 234 233 230 229 232 233 231 230 228 228 229 227 228 230 231 231 230 230 233 236 240 243 246 247 247 246 245 244 244 243 242 242 242 243 246 250 253 255 256 256 257 258 261 263 265 268 272 273
251 250 249 249 249 249 248 245 243 242 242 242 242 241 240 241 240 236 234 235 234 233 232 231 232 232 230 230 230 230 231 231 231 231 232 234 236 235 233 230 228 230 231 230 229 228 229 229 227 228 230 230 231 231 231 231 234 237 241 245 247 249 248 247 245 245 244 243 242 241 241 242 245 248 251 253 255 257 259 261 262 264 265 269 271
250 248 246 245 245 246 247 247 245 244 243 241 241 241 240 240 240 238 235 234 234 234 233 233 233 232 230 229 229 229 230 230 230 230 229 231 232 233 233 229 228 230 231 230 229 230 231 230 228 228 228 229 229 231 231 230 231 233 237 241 246 248 248 246 244 243 243 243 244 244 244 243 243 245 247 250 252 255 257 259 260 260 261 264 267
251 248 246 243 242 241 243 245 245 245 244 243 242 240 240 239 239 238 236 234 233 233 234 235 235 233 232 231 229 229 229 229 229 228 228 229 228 229 230 227 226 229 231 229 229 229 230 230 229 229 230 229 228 229 231 230 230 231 233 238 244 247 248 247 245 244 243 242 244 246 247 246 246 246 247 248 250 252 254 257 258 259 259 261 263
253 249 246 243 240 239 239 240 242 243 243 244 243 241 239 239 238 238 237 235 233 232 233 235 236 236 235 233 230 229 230 230 229 228 230 230 228 228 228 227 227 229 230 229 229 230 231 231 229 230 232 231 228 227 228 229 231 232 234 237 242 245 246 247 247 246 245 244 244 245 246 247 247 247 247 248 250 251 252 254 256 258 259 260 260
258 252 247 244 241 238 238 239 239 240 241 241 242 242 240 239 238 238 236 235 234 233 233 235 237 238 238 234 231 230 230 231 230 230 233 232 228 229 229 228 228 229 230 231 230 231 233 233 231 230 230 230 229 228 226 228 231 233 236 238 240 243 245 245 246 245 245 246 246 246 246 247 247 247 247 248 250 252 254 256 257 258 259 259 258
264 256 248 244 242 240 238 238 239 239 238 238 239 240 240 239 238 237 237 236 236 235 236 238 239 239 239 237 234 232 231 230 230 231 232 230 228 229 230 229 228 228 230 231 230 231 232 233 234 234 232 231 232 232 229 228 230 233 236 238 239 242 244 245 245 244 245 246 247 247 248 248 248 248 248 248 249 251 254 257 259 260 260 259 256
273 261 251 244 242 241 238 237 238 238 237 235 236 237 238 239 238 237 237 237 237 238 238 240 240 240 240 239 238 235 231 230 231 231 230 229 229 230 230 230 229 228 230 231 230 231 234 235 236 236 235 232 233 236 235 233 232 234 236 238 239 241 243 245 245 244 245 245 246 246 247 247 247 248 248 248 248 248 250 251 253 254 255 255 254
285 270 257 246 241 240 239 236 236 237 236 234 233 234 235 236 237 237 238 238 238 239 239 238 237 237 238 240 241 238 232 232 233 231 229 229 230 230 229 230 230 229 230 231 231 231 234 237 238 238 237 234 233 235 239 238 235 235 237 238 240 240 241 243 244 245 245 245 245 246 246 246 246 246 247 247 247 248 248 248 248 248 249 249 250
294 280 265 251 242 239 238 236 236 237 238 235 232 231 232 233 235 236 237 237 238 239 240 239 236 234 235 239 242 239 233 232 233 232 232 232 231 231 230 230 231 230 231 232 233 233 234 236 239 239 239 240 237 234 236 239 239 239 240 240 240 241 242 243 245 245 245 245 245 245 245 245 245 245 245 246 246 247 248 248 248 247 247 247 248
296 286 271 255 243 237 235 234 234 235 237 237 234 231 231 231 232 233 235 235 236 238 239 241 240 238 239 241 243 241 235 233 233 233 235 234 232 232 233 232 232 232 233 234 234 235 235 236 238 240 240 241 240 237 235 236 238 240 242 242 242 243 244 244 245 246 246 245 245 245 245 245 245 245 245 246 246 247 248 248 248 248 248 249 250
293 289 274 257 245 237 232 231 231 232 235 236 235 233 232 232 232 232 232 232 233 234 236 240 242 241 242 244 244 241 237 234 234 236 238 237 234 233 234 235 233 232 234 236 236 236 236 236 238 240 241 241 240 239 237 234 234 237 241 243 243 242 243 244 245 246 246 246 246 246 247 247 246 246 246 247 247 247 247 248 248 248 249 250 252
288 289 276 257 244 236 231 228 228 230 232 234 235 234 233 233 232 232 231 231 232 232 235 239 242 241 242 242 240 238 235 232 233 236 238 237 237 236 235 235 234 234 235 236 236 236 236 237 238 239 241 242 241 239 238 236 234 234 238 242 243 244 246 247 246 246 246 247 247 248 248 248 247 248 248 248 248 248 248 248 248 249 250 252 254
283 286 277 258 243 235 231 227 227 228 230 232 233 234 235 234 233 232 232 232 233 233 233 235 239 241 241 240 239 237 235 233 234 237 237 236 236 237 236 236 235 236 237 236 236 237 237 238 238 238 239 242 241 239 239 240 239 237 238 241 242 244 247 248 247 246 247 248 249 249 248 249 250 251 251 251 251 251 250 250 251 251 253 255 256
277 280 276 260 243 235 231 228 227 227 228 230 231 232 234 235 233 232 231 232 232 232 232 234 237 240 241 240 240 239 238 238 240 241 242 241 239 237 236 236 236 237 239 238 237 238 238 238 239 238 238 240 241 240 239 241 242 241 241 242 242 242 244 247 248 249 247 247 249 250 250 251 253 254 254 254 254 254 254 254 255 255 255 256 257
272 272 271 260 245 235 232 230 228 227 228 229 230 230 232 234 234 231 230 231 232 232 233 235 237 239 240 241 241 240 240 243 245 246 247 248 248 245 240 237 236 237 237 238 237 238 239 239 239 239 238 239 240 240 240 241 242 242 243 244 245 244 244 246 248 248 247 247 248 250 250 252 253 253 254 255 256 256 257 258 259 260 259 259 259
267 266 265 259 248 238 232 231 229 228 228 229 230 230 231 233 233 232 230 230 231 232 233 236 238 238 239 239 240 240 242 244 246 248 251 252 254 254 250 244 240 237 236 236 236 238 239 238 238 238 238 239 240 241 241 241 242 245 246 247 248 248 247 246 246 246 246 247 248 249 250 251 252 252 253 255 256 257 258 260 261 262 262 262 262
264 261 260 257 250 241 234 231 230 229 229 229 230 230 230 231 232 232 230 229 230 231 233 235 237 237 237 238 239 239 240 241 243 246 251 255 257 258 255 250 245 241 238 237 237 237 239 238 236 237 238 239 240 241 242 242 243 247 249 249 249 250 248 247 247 246 245 245 247 249 250 250 251 253 256 257 257 258 259 260 262 263 264 263 263
262 256 256 254 251 244 237 232 230 229 229 230 230 230 230 230 231 231 230 229 229 230 231 233 235 236 236 238 239 240 240 240 241 244 248 254 258 259 256 250 245 242 239 239 237 235 236 238 238 238 239 241 242 243 245 245 245 247 249 249 251 252 250 249 249 249 247 245 245 247 250 252 253 256 258 258 259 260 261 262 263 264 264 263 263
265 253 251 251 250 246 241 235 231 229 229 229 231 231 231 230 231 231 232 230 229 230 231 233 234 235 237 238 239 241 242 242 242 244 248 253 258 262 258 250 244 240 238 240 240 235 232 233 235 237 238 241 243 245 245 246 246 247 248 248 250 251 250 249 250 250 249 246 244 245 248 252 254 256 258 260 261 262 263 263 263 263 263 262 262
275 253 247 248 248 247 244 240 235 231 229 229 230 231 232 231 231 231 232 233 232 231 231 233 234 235 237 239 241 243 245 246 247 247 250 253 257 263 262 253 245 241 240 241 243 241 234 231 231 232 233 235 240 243 243 244 246 247 248 248 248 249 250 250 250 250 249 247 247 247 248 250 253 255 258 260 262 263 263 264 265 265 264 263 263
294 259 246 245 246 246 245 243 239 235 231 230 230 231 232 232 232 232 232 233 234 234 234 235 235 236 237 239 241 243 246 248 249 250 251 253 256 260 258 250 244 244 246 247 248 247 243 237 233 233 233 233 236 240 242 243 245 246 247 248 248 248 249 250 249 249 249 248 249 251 251 251 252 255 258 261 263 264 264 265 266 268 267 266 266
316 279 250 243 244 245 245 244 242 239 235 232 231 231 232 233 233 233 232 233 234 235 237 238 238 240 241 242 244 246 248 250 251 253 253 253 255 256 248 240 240 239 239 242 245 246 246 243 239 237 237 237 238 239 240 241 243 244 245 246 246 247 249 250 249 249 250 249 250 251 252 252 253 256 259 262 264 265 264 264 265 267 268 268 268
329 306 263 246 243 244 245 246 245 242 239 236 233 232 233 233 234 235 235 234 235 236 237 239 240 242 243 245 247 249 251 253 253 254 255 254 254 254 247 241 241 238 233 233 239 244 246 246 244 242 241 241 240 241 242 243 243 244 244 244 245 247 250 252 253 253 253 252 252 253 254 254 255 257 260 262 263 264 264 264 264 265 267 269 269
335 324 290 259 248 246 247 247 247 246 244 242 238 235 234 234 235 235 236 236 236 236 237 239 240 241 243 245 248 251 253 255 256 256 256 256 255 256 254 247 244 244 243 244 248 252 251 248 245 244 244 244 243 244 245 247 247 248 248 249 250 252 254 254 254 254 253 254 255 256 257 259 260 261 261 262 263 263 264 265 265 265 266 268 270
Height
5822 5824 5825 5828 5830 5833 5835 5837 5838 5839 5840 5840 5841 5840 5840 5840 5840 5840 5841 5842 5843 5844 5844 5844 5845 5846 5846 5847 5847 5848 5849 5848 5848 5848 5847 5847 5846 5847 5848 5848 5849 5849 5848 5847 5847 5847 5847 5847 5846 5846 5846 5846 5846 5846 5847 5848 5848 5849 5850 5850 5850 5850 5851 5851 5851 5851 5851 5851 5851 5850 5850 5850 5849 5849 5850 5850 5850 5850 5850 5851 5851 5852 5853 5854 5855
5821 5822 5824 5826 5828 5830 5832 5834 5836 5838 5838 5839 5839 5839 5838 5839 5839 5839 5840 5841 5842 5842 5842 5843 5843 5844 5845 5845 5846 5847 5847 5847 5847 5847 5847 5846 5846 5846 5847 5848 5848 5848 5848 5847 5846 5846 5847 5847 5846 5846 5846 5846 5846 5846 5847 5848 5848 5849 5850 5850 5851 5851 5851 5851 5851 5851 5851 5852 5851 5851 5851 5850 5850 5850 5850 5850 5850 5850 5851 5851 5851 5852 5853 5854 5855
5819 5821 5822 5824 5825 5827 5829 5831 5833 5835 5836 5837 5837 5836 5836 5837 5837 5837 5838 5839 5840 5841 5841 5841 5842 5843 5843 5844 5844 5845 5846 5846 5846 5846 5846 5846 5845 5845 5846 5847 5848 5848 5847 5847 5846 5846 5846 5846 5846 5846 5846 5846 5846 5846 5847 5848 5849 5849 5850 5851 5851 5851 5851 5852 5852 5852 5852 5852 5852 5852 5852 5851 5851 5851 5850 5850 5850 5851 5851 5851 5852 5852 5853 5854 5855
5818 5819 5820 5822 5823 5824 5826 5828 5831 5832 5833 5833 5833 5833 5833 5834 5835 5836 5836 5837 5839 5839 5839 5840 5841 5842 5842 5843 5843 5844 5845 5845 5845 5845 5845 5845 5845 5845 5845 5847 5848 5848 5847 5846 5846 5846 5846 5846 5847 5847 5846 5846 5847 5847 5847 5848 5849 5850 5850 5851 5851 5852 5852 5852 5852 5852 5853 5853 5853 5852 5852 5852 5852 5851 5851 5851 5851 5851 5852 5852 5853 5853 5854 5855 5856
5817 5818 5818 5820 5821 5822 5824 5826 5828 5829 5829 5830 5831 5830 5831 5832 5833 5834 5834 5835 5837 5838 5838 5838 5839 5840 5841 5842 5842 5843 5844 5844 5844 5845 5845 5845 5844 5844 5845 5846 5847 5847 5847 5847 5846 5846 5846 5846 5847 5847 5847 5847 5847 5847 5848 5849 5849 5850 5851 5851 5852 5852 5852 5853 5853 5853 5853 5853 5853 5853 5853 5853 5852 5852 5852 5852 5852 5852 5853 5853 5854 5854 5855 5856 5857
5815 5816 5817 5817 5818 5820 5822 5824 5825 5825 5827 5828 5829 5828 5829 5830 5832 5832 5833 5833 5835 5836 5837 5837 5837 5839 5840 5841 5841 5842 5843 5843 5843 5844 5844 5844 5844 5844 5844 5845 5847 5847 5847 5847 5846 5846 5846 5846 5847 5847 5847 5848 5848 5848 5849 5850 5850 5850 5851 5852 5852 5852 5853 5853 5853 5854 5854 5854 5853 5853 5853 5853 5853 5853 5853 5853 5853 5853 5854 5854 5855 5855 5856 5857 5857
5812 5813 5814 5815 5816 5817 5819 5821 5822 5823 5824 5825 5826 5826 5827 5828 5830 5830 5831 5832 5833 5834 5835 5836 5836 5837 5838 5839 5840 5841 5841 5842 5843 5843 5843 5843 5844 5844 5844 5844 5846 5847 5847 5847 5846 5846 5846 5846 5846 5847 5847 5848 5848 5848 5849 5850 5850 5851 5851 5852 5852 5852 5853 5853 5854 5854 5854 5854 5854 5854 5854 5854 5854 5854 5854 5854 5854 5855 5855 5855 5856 5857 5857 5858 5858
5810 5811 5812 5813 5814 5815 5817 5818 5819 5820 5821 5822 5824 5824 5825 5826 5827 5828 5829 5830 5831 5832 5833 5834 5835 5836 5837 5838 5839 5840 5840 5841 5841 5842 5842 5843 5843 5844 5844 5844 5845 5846 5846 5847 5846 5846 5846 5846 5846 5846 5847 5848 5849 5849 5849 5850 5850 5850 5851 5852 5852 5853 5853 5853 5854 5854 5854 5854 5854 5855 5854 5854 5854 5854 5854 5855 5855 5855 5856 5856 5857 5857 5858 5858 5859
5807 5808 5809 5810 5811 5813 5814 5815 5816 5817 5818 5820 5821 5822 5823 5824 5825 5826 5827 5828 5829 5830 5831 5832 5833 5834 5835 5836 5837 5838 5839 5839 5840 5841 5841 5842 5843 5843 5844 5844 5844 5845 5846 5846 5846 5846 5846 5847 5847 5846 5847 5848 5849 5849 5850 5850 5850 5850 5851 5852 5852 5852 5853 5853 5854 5854 5854 5854 5855 5855 5855 5855 5855 5855 5855 5855 5856 5856 5856 5857 5857 5858 5858 5858 5859
5804 5805 5806 5807 5808 5810 5811 5812 5813 5814 5816 5817 5818 5819 5820 5821 5822 5824 5824 5825 5827 5828 5830 5831 5832 5832 5833 5834 5835 5837 5838 5838 5838 5839 5840 5841 5842 5842 5843 5843 5843 5844 5845 5846 5846 5846 5846 5847 5847 5847 5847 5847 5849 5850 5850 5850 5850 5851 5851 5852 5852 5852 5853 5853 5854 5854 5854 5854 5855 5855 5855 5855 5855 5855 5856 5856 5856 5857 5857 5857 5858 5858 5858 5858 5859
5801 5803 5803 5804 5805 5807 5808 5809 5810 5811 5813 5814 5815 5817 5818 5818 5820 5822 5822 5823 5824 5826 5827 5828 5829 5830 5831 5832 5833 5835 5836 5837 5837 5837 5839 5840 5841 5841 5842 5843 5843 5843 5844 5845 5845 5846 5846 5846 5847 5847 5847 5847 5848 5849 5850 5850 5850 5850 5851 5852 5852 5852 5852 5853 5853 5854 5854 5854 5855 5855 5855 5855 5856 5856 5856 5856 5857 5857 5857 5858 5858 5858 5858 5858 5858
5799 5800 5801 5801 5803 5804 5805 5806 5807 5808 5810 5811 5812 5813 5815 5816 5818 5819 5820 5821 5822 5823 5825 5826 5827 5828 5829 5830 5831 5833 5834 5835 5835 5836 5837 5838 5839 5840 5841 5842 5842 5843 5843 5844 5844 5845 5845 5846 5846 5847 5847 5847 5848 5849 5850 5850 5850 5850 5851 5851 5851 5852 5852 5853 5853 5853 5854 5854 5854 5855 5855 5855 5855 5856 5856 5857 5857 5857 5857 5858 5858 5858 5858 5858 5858
5796 5797 5798 5799 5800 5801 5802 5803 5804 5806 5807 5808 5809 5810 5812 5813 5815 5817 5818 5818 5819 5821 5822 5823 5825 5826 5827 5828 5830 5831 5832 5833 5834 5835 5836 5837 5838 5839 5840 5841 5841 5842 5842 5842 5843 5844 5845 5845 5846 5846 5847 5847 5848 5848 5849 5850 5850 5850 5851 5851 5851 5851 5852 5852 5853 5853 5854 5854 5854 5855 5855 5855 5855 5856 5856 5857 5857 5857 5857 5858 5858 5858 5858 5858 5858
5794 5795 5796 5797 5798 5799 5800 5801 5802 5803 5804 5805 5806 5807 5809 5810 5812 5814 5815 5816 5816 5818 5819 5821 5822 5824 5825 5827 5828 5829 5830 5831 5832 5833 5834 5835 5836 5837 5838 5839 5840 5840 5841 5841 5842 5843 5844 5845 5845 5846 5846 5846 5847 5848 5849 5850 5850 5850 5851 5851 5851 5851 5852 5852 5852 5853 5853 5854 5854 5854 5855 5855 5855 5856 5856 5856 5857 5857 5857 5857 5857 5858 5858 5858 5858
5792 5792 5793 5794 5795 5796 5797 5798 5799 5800 5801 5802 5803 5804 5806 5807 5809 5811 5812 5813 5814 5815 5817 5819 5820 5821 5823 5825 5826 5827 5828 5829 5829 5831 5833 5834 5834 5835 5836 5837 5838 5839 5840 5840 5841 5842 5843 5844 5845 5845 5846 5846 5846 5847 5848 5849 5850 5850 5850 5851 5851 5851 5852 5852 5852 5853 5853 5854 5854 5854 5855 5855 5856 5856 5856 5856 5856 5857 5857 5857 5857 5857 5857 5857 5858
5790 5790 5791 5791 5792 5793 5794 5795 5796 5797 5798 5799 5800 5801 5803 5804 5805 5807 5809 5811 5812 5813 5815 5817 5818 5819 5821 5823 5824 5825 5826 5826 5827 5829 5831 5832 5833 5833 5834 5835 5837 5837 5838 5839 5839 5840 5841 5842 5843 5844 5845 5845 5846 5846 5847 5848 5849 5849 5850 5850 5851 5851 5851 5852 5852 5853 5853 5854 5854 5854 5855 5855 5855 5856 5856 5856 5856 5856 5857 5857 5857 5857 5857 5857 5857
5788 5788 5788 5789 5790 5791 5792 5793 5794 5794 5795 5796 5797 5799 5800 5801 5802 5804 5806 5808 5809 5810 5812 5814 5816 5817 5819 5820 5821 5823 5824 5825 5826 5827 5828 5829 5830 5831 5832 5833 5835 5836 5836 5837 5838 5839 5840 5841 5842 5843 5844 5844 5845 5845 5846 5847 5848 5848 5849 5850 5850 5850 5851 5851 5852 5852 5853 5853 5854 5854 5854 5855 5855 5855 5856 5856 5856 5856 5857 5857 5857 5857 5857 5857 5857
5785 5786 5787 5787 5788 5789 5790 5790 5791 5792 5793 5793 5794 5796 5797 5798 5799 5801 5803 5805 5807 5808 5809 5811 5814 5815 5816 5818 5819 5820 5821 5822 5824 5825 5826 5827 5828 5829 5830 5831 5832 5834 5834 5835 5836 5837 5838 5839 5841 5842 5842 5843 5844 5844 5845 5846 5846 5847 5848 5849 5849 5850 5850 5851 5851 5851 5852 5853 5853 5854 5854 5854 5854 5855 5855 5856 5856 5856 5856 5857 5857 5856 5856 5856 5856
5782 5783 5784 5785 5785 5786 5787 5788 5789 5790 5790 5791 5792 5793 5794 5795 5796 5798 5800 5802 5804 5805 5806 5808 5811 5813 5814 5815 5816 5818 5819 5820 5822 5823 5824 5825 5826 5827 5828 5829 5830 5832 5832 5833 5834 5835 5836 5837 5839 5840 5841 5841 5842 5843 5844 5844 5845 5846 5847 5847 5848 5849 5849 5850 5850 5851 5851 5852 5853 5853 5854 5854 5854 5854 5854 5855 5856 5856 5856 5856 5856 5856 5856 5856 5856
5780 5781 5782 5783 5783 5784 5785 5785 5786 5787 5788 5789 5789 5790 5791 5792 5793 5795 5797 5798 5800 5802 5803 5805 5808 5810 5811 5813 5814 5816 5817 5818 5820 5821 5822 5823 5824 5825 5826 5827 5828 5829 5830 5831 5832 5833 5834 5836 5837 5838 5839 5840 5841 5841 5842 5843 5843 5844 5845 5846 5847 5848 5848 5849 5849 5850 5850 5851 5852 5852 5853 5853 5854 5854 5854 5854 5855 5855 5856 5856 5856 5856 5856 5855 5855
5777 5778 5779 5780 5781 5781 5782 5783 5783 5784 5785 5786 5786 5788 5789 5789 5790 5792 5793 5795 5797 5798 5800 5802 5804 5806 5808 5810 5812 5814 5815 5816 5818 5819 5819 5820 5822 5823 5824 5825 5826 5827 5828 5829 5830 5831 5832 5833 5835 5836 5837 5838 5839 5840 5841 5841 5842 5843 5844 5845 5846 5847 5847 5848 5848 5849 5849 5850 5851 5851 5852 5853 5853 5853 5853 5853 5854 5854 5855 5855 5855 5855 5855 5855 5854
5774 5775 5776 5777 5778 5779 5779 5780 5781 5781 5782 5783 5784 5785 5786 5786 5787 5789 5790 5792 5793 5795 5797 5799 5800 5802 5804 5807 5809 5811 5812 5814 5816 5816 5816 5817 5819 5820 5822 5823 5824 5825 5826 5827 5828 5829 5830 5831 5832 5834 5835 5836 5837 5838 5839 5840 5841 5841 5842 5843 5844 5845 5846 5847 5847 5848 5849 5849 5850 5850 5851 5852 5852 5852 5853 5853 5853 5853 5853 5854 5854 5854 5854 5854 5853
5772 5773 5774 5774 5775 5776 5777 5777 5778 5779 5779 5780 5781 5782 5783 5784 5785 5786 5787 5789 5790 5792 5794 5796 5797 5798 5799 5802 5804 5806 5808 5811 5813 5813 5814 5815 5816 5818 5819 5820 5822 5823 5824 5825 5826 5826 5827 5829 5830 5832 5833 5834 5835 5836 5837 5838 5839 5840 5840 5841 5842 5843 5844 5845 5846 5846 5847 5848 5849 5849 5850 5851 5851 5852 5852 5852 5852 5852 5852 5852 5853 5853 5853 5852 5852
5769 5770 5771 5771 5772 5773 5774 5774 5775 5776 5776 5777 5778 5779 5780 5781 5782 5783 5784 5785 5787 5789 5791 5793 5794 5794 5795 5797 5799 5801 5804 5807 5809 5810 5811 5812 5813 5815 5816 5818 5820 5821 5822 5823 5824 5824 5825 5826 5828 5829 5831 5831 5833 5834 5835 5836 5837 5838 5838 5839 5839 5840 5841 5842 5843 5844 5845 5846 5847 5848 5848 5849 5850 5850 5851 5851 5851 5851 5851 5851 5851 5851 5851 5851 5851
5767 5767 5768 5768 5769 5769 5770 5771 5772 5772 5774 5774 5775 5776 5777 5778 5779 5780 5781 5783 5784 5786 5788 5789 5790 5791 5792 5794 5795 5797 5800 5803 5805 5807 5808 5810 5811 5812 5814 5816 5817 5818 5819 5820 5821 5822 5823 5824 5825 5827 5828 5829 5830 5831 5832 5833 5835 5836 5836 5837 5838 5838 5839 5840 5841 5842 5843 5844 5845 5846 5847 5847 5848 5849 5849 5849 5850 5850 5850 5850 5850 5850 5850 5850 5849
5764 5764 5765 5765 5766 5766 5767 5767 5768 5769 5770 5771 5772 5773 5774 5775 5776 5777 5778 5780 5781 5783 5785 5786 5787 5788 5790 5792 5793 5795 5797 5799 5802 5803 5805 5807 5807 5809 5811 5812 5814 5816 5816 5817 5818 5820 5821 5822 5823 5824 5826 5827 5828 5829 5830 5831 5832 5833 5834 5835 5836 5836 5837 5838 5839 5840 5841 5842 5843 5844 5844 5845 5846 5847 5847 5848 5848 5848 5848 5848 5848 5848 5848 5848 5848
5760 5761 5761 5762 5762 5763 5763 5764 5764 5765 5767 5768 5769 5770 5770 5772 5773 5774 5775 5776 5777 5779 5781 5782 5783 5785 5787 5788 5789 5791 5793 5795 5798 5800 5801 5803 5804 5805 5807 5808 5810 5812 5813 5814 5815 5817 5818 5819 5821 5822 5823 5824 5826 5827 5827 5829 5830 5831 5832 5833 5834 5835 5835 5836 5837 5838 5839 5840 5841 5841 5842 5843 5844 5845 5845 5846 5846 5847 5847 5847 5847 5847 5847 5847 5847
5756 5757 5757 5758 5759 5759 5760 5760 5761 5762 5763 5764 5765 5766 5767 5768 5769 5771 5772 5773 5774 5776 5778 5779 5780 5781 5783 5784 5786 5788 5789 5790 5792 5795 5797 5799 5801 5803 5804 5805 5807 5808 5810 5811 5813 5814 5816 5817 5818 5819 5820 5822 5823 5824 5825 5826 5827 5829 5830 5831 5832 5833 5834 5834 5835 5836 5837 5838 5838 5839 5840 5840 5841 5842 5843 5844 5844 5845 5845 5845 5846 5846 5846 5845 5845
5752 5753 5753 5754 5755 5756 5756 5757 5757 5758 5759 5760 5761 5763 5764 5765 5766 5767 5769 5770 5771 5773 5774 5775 5776 5778 5779 5780 5782 5784 5785 5785 5787 5790 5792 5794 5797 5799 5800 5802 5803 5805 5807 5808 5810 5811 5812 5814 5815 5816 5817 5819 5820 5821 5822 5823 5825 5826 5827 5828 5830 5831 5832 5832 5833 5834 5835 5836 5836 5837 5838 5838 5839 5840 5840 5841 5842 5842 5843 5843 5844 5844 5844 5844 5844
5748 5748 5749 5750 5751 5752 5752 5753 5754 5755 5756 5757 5758 5759 5760 5761 5762 5764 5765 5766 5768 5769 5771 5772 5773 5774 5775 5776 5778 5779 5780 5782 5784 5786 5787 5789 5792 5794 5795 5797 5799 5801 5803 5805 5806 5807 5808 5810 5812 5813 5814 5815 5817 5818 5819 5821 5822 5823 5824 5826 5827 5828 5829 5830 5831 5832 5832 5833 5834 5835 5836 5836 5837 5838 5838 5839 5839 5840 5840 5841 5841 5842 5842 5842 5842
5742 5743 5744 5745 5746 5747 5748 5749 5750 5751 5752 5753 5754 5755 5756 5757 5759 5760 5761 5763 5764 5766 5767 5768 5769 5771 5772 5773 5774 5776 5777 5779 5781 5783 5784 5785 5787 5789 5791 5793 5796 5798 5800 5801 5802 5803 5805 5807 5809 5810 5811 5812 5813 5814 5816 5818 5819 5820 5821 5823 5824 5825 5826 5827 5828 5829 5830 5830 5831 5832 5833 5834 5835 5836 5836 5837 5837 5837 5838 5838 5839 5839 5839 5840 5840
5737 5738 5739 5740 5741 5742 5743 5745 5746 5747 5748 5749 5750 5751 5753 5754 5755 5756 5758 5759 5760 5762 5764 5764 5765 5767 5768 5769 5771 5772 5774 5775 5778 5780 5781 5782 5784 5786 5788 5789 5792 5795 5797 5798 5800 5801 5802 5804 5806 5807 5808 5809 5810 5811 5813 5814 5816 5817 5818 5820 5821 5822 5823 5824 5825 5826 5827 5828 5828 5829 5830 5831 5832 5833 5834 5834 5835 5835 5835 5836 5836 5837 5837 5837 5837
5731 5731 5733 5734 5736 5737 5739 5740 5742 5743 5744 5745 5746 5747 5749 5750 5751 5753 5754 5755 5757 5759 5760 5761 5762 5763 5765 5766 5767 5768 5769 5771 5773 5775 5776 5779 5781 5783 5783 5785 5788 5791 5793 5794 5796 5797 5798 5800 5802 5804 5805 5807 5809 5810 5811 5812 5813 5814 5815 5817 5818 5819 5820 5821 5822 5823 5824 5825 5826 5827 5827 5828 5829 5830 5831 5831 5832 5833 5833 5833 5834 5834 5834 5834 5834
5725 5725 5726 5728 5730 5732 5733 5735 5737 5738 5740 5741 5742 5743 5745 5746 5747 5749 5750 5752 5754 5755 5756 5758 5758 5759 5761 5762 5763 5763 5765 5767 5768 5770 5772 5775 5777 5778 5779 5781 5785 5787 5789 5790 5792 5794 5795 5796 5798 5800 5802 5805 5807 5808 5809 5810 5810 5811 5812 5813 5815 5816 5817 5818 5819 5820 5821 5822 5823 5823 5824 5825 5826 5827 5828 5828 5829 5829 5830 5830 5830 5830 5831 5831 5831
5721 5720 5720 5722 5724 5726 5728 5730 5732 5734 5735 5737 5738 5739 5741 5742 5744 5745 5746 5748 5750 5751 5752 5753 5754 5755 5756 5758 5759 5760 5762 5763 5764 5766 5769 5770 5771 5773 5775 5778 5781 5783 5784 5786 5788 5790 5792 5793 5794 5797 5799 5801 5803 5805 5807 5807 5808 5809 5809 5810 5811 5812 5813 5814 5816 5817 5818 5819 5819 5820 5821 5822 5823 5824 5824 5825 5825 5826 5826 5826 5827 5827 5827 5828 5828
5718 5716 5716 5717 5719 5721 5723 5725 5727 5729 5731 5732 5734 5735 5737 5738 5740 5741 5743 5744 5745 5747 5748 5749 5749 5751 5752 5754 5755 5756 5758 5759 5760 5762 5764 5766 5767 5769 5772 5774 5776 5779 5781 5782 5784 5786 5788 5790 5791 5793 5795 5798 5799 5800 5802 5804 5806 5807 5807 5808 5808 5809 5811 5812 5813 5814 5815 5815 5816 5817 5818 5819 5819 5820 5821 5821 5822 5822 5823 5823 5823 5824 5824 5825 5825
5714 5712 5712 5712 5714 5715 5718 5720 5723 5725 5727 5728 5730 5731 5733 5734 5736 5737 5739 5740 5741 5743 5745 5745 5746 5748 5749 5751 5752 5753 5753 5755 5756 5758 5759 5760 5763 5766 5768 5769 5773 5776 5777 5778 5780 5782 5784 5786 5788 5789 5791 5794 5796 5797 5798 5800 5803 5805 5805 5805 5806 5807 5808 5809 5810 5811 5812 5812 5813 5814 5815 5815 5816 5817 5817 5818 5818 5818 5819 5819 5820 5820 5821 5821 5822
5711 5709 5708 5708 5709 5711 5713 5715 5718 5720 5723 5724 5726 5728 5729 5730 5732 5734 5735 5736 5737 5739 5741 5741 5742 5744 5746 5748 5749 5749 5750 5751 5753 5753 5754 5756 5758 5761 5762 5765 5768 5771 5771 5772 5775 5777 5780 5782 5784 5786 5787 5789 5792 5794 5795 5797 5800 5802 5802 5802 5803 5804 5804 5805 5807 5807 5808 5809 5810 5811 5811 5812 5813 5813 5814 5814 5814 5815 5815 5815 5816 5816 5817 5818 5818
5708 5706 5705 5705 5705 5707 5709 5711 5713 5716 5718 5721 5722 5724 5726 5727 5728 5730 5731 5733 5734 5735 5737 5738 5739 5741 5742 5744 5745 5745 5746 5748 5748 5749 5750 5752 5754 5756 5758 5760 5763 5764 5765 5767 5769 5772 5775 5777 5779 5781 5783 5785 5787 5790 5792 5793 5795 5798 5798 5798 5799 5800 5801 5802 5803 5804 5805 5806 5806 5807 5808 5808 5809 5810 5810 5811 5811 5811 5811 5811 5812 5813 5813 5814 5814
5705 5703 5702 5702 5702 5703 5705 5707 5709 5712 5714 5717 5719 5721 5722 5723 5725 5726 5728 5729 5730 5732 5734 5735 5736 5737 5739 5740 5741 5742 5744 5744 5744 5745 5747 5748 5750 5751 5753 5755 5757 5758 5760 5762 5765 5767 5770 5772 5774 5777 5779 5781 5783 5786 5788 5790 5791 5793 5794 5795 5795 5796 5797 5797 5798 5800 5801 5802 5803 5803 5803 5804 5805 5806 5806 5807 5807 5807 5808 5808 5808 5809 5810 5810 5810
5702 5701 5700 5699 5700 5700 5702 5704 5706 5708 5711 5713 5715 5717 5719 5720 5721 5723 5725 5726 5727 5729 5730 5732 5733 5734 5735 5736 5738 5739 5740 5739 5740 5742 5743 5744 5746 5747 5749 5750 5752 5754 5756 5758 5761 5763 5765 5767 5770 5772 5775 5777 5779 5782 5784 5785 5787 5789 5790 5791 5792 5793 5793 5792 5794 5796 5798 5799 5799 5800 5800 5800 5801 5802 5802 5803 5804 5803 5804 5805 5805 5805 5805 5805 5805
5699 5698 5698 5697 5697 5698 5699 5701 5703 5705 5707 5709 5712 5714 5715 5717 5718 5720 5721 5723 5724 5725 5727 5729 5730 5731 5732 5733 5734 5736 5735 5736 5737 5738 5739 5740 5742 5743 5744 5746 5747 5749 5751 5753 5756 5758 5760 5763 5766 5768 5770 5772 5775 5777 5779 5781 5782 5783 5785 5786 5787 5789 5790 5789 5790 5791 5793 5795 5796 5796 5796 5797 5797 5798 5797 5799 5800 5799 5799 5801 5801 5801 5801 5801 5801
5696 5696 5696 5695 5696 5696 5697 5698 5700 5701 5704 5706 5708 5710 5712 5714 5716 5717 5718 5720 5721 5722 5724 5725 5727 5728 5729 5730 5731 5732 5733 5734 5735 5736 5737 5738 5738 5739 5740 5742 5744 5745 5747 5749 5751 5754 5756 5759 5761 5763 5765 5767 5770 5771 5773 5775 5776 5777 5779 5781 5783 5785 5786 5786 5785 5785 5788 5790 5790 5790 5790 5792 5793 5793 5793 5795 5796 5794 5795 5796 5796 5796 5796 5796 5797
5694 5693 5693 5693 5694 5694 5695 5696 5697 5699 5701 5703 5705 5707 5709 5711 5713 5714 5715 5717 5718 5719 5721 5722 5723 5725 5726 5727 5728 5729 5731 5732 5733 5733 5734 5735 5735 5736 5736 5738 5740 5742 5743 5745 5747 5749 5751 5753 5756 5757 5760 5762 5764 5765 5767 5770 5772 5772 5773 5776 5777 5778 5780 5781 5780 5780 5783 5786 5786 5785 5785 5786 5788 5788 5789 5791 5791 5789 5790 5791 5791 5791 5792 5792 5792
5691 5691 5691 5691 5692 5692 5693 5694 5695 5696 5698 5700 5702 5704 5706 5708 5710 5711 5713 5714 5715 5717 5718 5719 5720 5722 5723 5724 5725 5726 5728 5729 5730 5731 5731 5732 5733 5733 5733 5734 5736 5737 5739 5741 5743 5744 5746 5749 5751 5753 5755 5757 5759 5760 5762 5764 5766 5767 5768 5770 5772 5773 5775 5776 5774 5775 5778 5780 5781 5782 5781 5781 5782 5782 5783 5785 5784 5784 5785 5786 5786 5786 5787 5787 5787
5688 5688 5689 5689 5690 5690 5691 5692 5693 5694 5695 5697 5699 5701 5703 5705 5707 5709 5710 5711 5713 5714 5715 5717 5718 5719 5720 5721 5722 5724 5725 5726 5727 5728 5728 5729 5729 5730 5730 5731 5732 5734 5735 5737 5739 5740 5742 5744 5746 5748 5751 5753 5754 5755 5757 5758 5760 5761 5762 5764 5766 5768 5769 5770 5769 5771 5773 5774 5775 5776 5776 5776 5777 5777 5778 5778 5779 5779 5780 5780 5780 5781 5781 5781 5782
5686 5686 5686 5687 5688 5688 5689 5690 5691 5692 5693 5695 5696 5698 5700 5702 5703 5705 5707 5709 5710 5711 5713 5714 5715 5716 5717 5719 5720 5721 5722 5723 5724 5725 5725 5726 5726 5727 5727 5727 5729 5730 5732 5733 5735 5736 5737 5739 5741 5743 5745 5747 5748 5749 5751 5752 5754 5756 5757 5759 5761 5762 5763 5764 5765 5766 5767 5768 5769 5770 5770 5771 5772 5772 5772 5773 5773 5773 5774 5774 5774 5775 5775 5775 5776
5684 5684 5684 5685 5686 5686 5687 5688 5689 5690 5691 5692 5694 5695 5697 5698 5700 5702 5704 5706 5707 5708 5710 5711 5712 5714 5715 5716 5717 5718 5719 5720 5721 5722 5722 5723 5723 5724 5724 5725 5726 5727 5729 5730 5731 5732 5733 5735 5736 5738 5739 5741 5743 5744 5745 5748 5749 5751 5752 5754 5755 5757 5758 5758 5760 5761 5762 5762 5764 5764 5765 5765 5766 5766 5767 5767 5767 5767 5768 5768 5768 5768 5769 5769 5769
5683 5682 5682 5683 5684 5684 5685 5686 5687 5688 5689 5690 5691 5692 5694 5695 5697 5699 5700 5702 5704 5705 5707 5708 5710 5711 5712 5713 5714 5715 5716 5717 5718 5719 5719 5720 5720 5721 5722 5722 5724 5725 5726 5726 5728 5729 5730 5731 5732 5733 5735 5736 5737 5739 5741 5743 5744 5746 5747 5749 5750 5751 5752 5753 5754 5755 5756 5757 5758 5758 5759 5759 5760 5761 5761 5761 5761 5761 5761 5762 5762 5762 5762 5763 5763
5682 5681 5681 5681 5682 5683 5683 5684 5685 5686 5687 5688 5689 5690 5691 5693 5694 5695 5697 5699 5701 5702 5704 5705 5706 5708 5709 5710 5711 5712 5713 5714 5715 5716 5717 5717 5718 5719 5720 5720 5721 5722 5723 5723 5724 5726 5727 5728 5729 5730 5731 5732 5733 5734 5736 5738 5740 5741 5742 5744 5745 5746 5747 5748 5749 5750 5751 5751 5752 5753 5753 5754 5755 5755 5755 5755 5755 5754 5754 5755 5756 5756 5756 5757 5757
5682 5681 5680 5680 5681 5681 5682 5683 5683 5684 5685 5686 5686 5687 5688 5690 5691 5692 5694 5696 5697 5699 5700 5702 5703 5705 5706 5707 5708 5709 5710 5711 5712 5713 5714 5715 5715 5716 5717 5718 5719 5720 5720 5721 5721 5722 5723 5725 5725 5726 5727 5727 5728 5730 5731 5733 5734 5736 5737 5738 5740 5741 5742 5743 5744 5744 5745 5746 5747 5748 5748 5748 5749 5749 5749 5749 5749 5748 5748 5749 5749 5749 5749 5750 5749